Tracking 20335 objects as of 16-Feb-2020
HD Live streaming from Space Station
objects crossing your sky now

SL-16 DEB

Track SL-16 DEB now!
10-day predictions


NORAD ID: 23709
Int'l Code: 1995-058F
Perigee: 847.2 km
Apogee: 1,136.8 km
Inclination: 71.0 °
Period: 104.8 minutes
Semi major axis: 7362 km
RCS: 0.088 m2 (small)
Launch date: October 31, 1995
Source: Commonwealth of Independent States (former USSR) (CIS)
Launch site: TYURATAM MISSILE AND SPACE COMPLEX (TTMTR)

Note: This is SATELLITE DEBRIS
aabbcc
Your satellite tracking list
Your tracking list is empty




NASA's NSSDC Master Catalog

Two Line Element Set (TLE):
1 23709U 95058F   20046.75558934 -.00000037 +00000-0 +47206-5 0  9991
2 23709 071.0398 317.0667 0196684 053.1958 339.2800 13.74114134217875
Source of the keplerian elements: AFSPC